Weather History for Westfield, MA

Change the Weather History Date:

Saturday, March 1, 2014

  Actual Average Record
Temperature  
Mean Temperature 16 °F -  
Max Temperature 33 °F 38 °F 55 °F (2004)
Min Temperature -2 °F 20 °F -2 °F (2014)
Degree Days  
Heating Degree Days 50    
Moisture  
Dew Point 4 °F    
Average Humidity 56    
Maximum Humidity 79    
Minimum Humidity 38    
Precipitation  
Precipitation 0.00 in - - ()
Sea Level Pressure  
Sea Level Pressure 30.31 in    
Wind  
Wind Speed 4 mph (South)    
Max Wind Speed 16 mph    
Max Gust Speed 17 mph    
Visibility 10 miles    
Events      
Averages and records for this station are not official NWS values.
T = Trace of Precipitation, MM = Missing Value Source: NWS Daily Summary

Daily Weather History Graph

Daily Weather History Graph

Search for Another Location

Airport:

Trip Planner

Search our weather history database for the weather conditions in past years. The results will help you decide how hot, cold, wet, or windy it might be!

Date:

Astronomy

Mar. 01, 2014 Rise Set
Actual Time 6:26 AM EST 5:40 PM EST
Civil Twilight 5:58 AM EST 6:08 PM EST
Nautical Twilight 5:25 AM EST 6:41 PM EST
Astronomical Twilight 4:53 AM EST 7:13 PM EST
Moon 6:17 AM EST (3/1) 6:26 PM EST (3/1)
Length of Visible Light 12h 10m
Length of Day
11h 14m
New Moon, 0% of the Moon is Illuminated
Mar 1
New Moon
Mar 8
First Quarter
Mar 16
Full
Mar 23
Last Quarter
Mar 30
New

Hourly Weather History & Observations

Time (EST) Temp. Windchill Dew Point Humidity Pressure Visibility Wind Dir Wind Speed Gust Speed Precip Events Conditions
12:53 AM 1.0 °F - -7.1 °F 69% 30.46 in 10.0 mi Calm Calm - N/A   Clear
1:53 AM -0.0 °F - -7.1 °F 72% 30.45 in 10.0 mi Calm Calm - N/A   Clear
2:53 AM 1.0 °F - -6.0 °F 72% 30.44 in 10.0 mi Calm Calm - N/A   Clear
3:53 AM -0.0 °F - -7.1 °F 72% 30.44 in 9.0 mi Calm Calm - N/A   Clear
4:53 AM -0.9 °F - -7.1 °F 75% 30.44 in 10.0 mi Calm Calm - N/A   Clear
5:53 AM -0.9 °F - -7.1 °F 75% 30.44 in 9.0 mi Calm Calm - N/A   Clear
6:53 AM -2.0 °F - -7.1 °F 79% 30.43 in 9.0 mi Calm Calm - N/A   Clear
7:53 AM 3.0 °F - -5.1 °F 69% 30.43 in 10.0 mi Calm Calm - N/A   Clear
8:53 AM 7.0 °F - -4.0 °F 61% 30.43 in 10.0 mi Calm Calm - N/A   Clear
9:53 AM 14.0 °F - -5.1 °F 43% 30.42 in 10.0 mi Calm Calm - N/A   Clear
10:53 AM 21.0 °F 11.4 °F -0.9 °F 38% 30.39 in 10.0 mi SE 8.1 mph - N/A   Clear
11:53 AM 26.1 °F 15.0 °F 6.1 °F 43% 30.35 in 10.0 mi SSE 12.7 mph 17.3 mph N/A   Clear
12:53 PM 28.9 °F 17.3 °F 9.0 °F 43% 30.30 in 10.0 mi South 16.1 mph - N/A   Clear
1:53 PM 30.9 °F 21.2 °F 10.9 °F 43% 30.26 in 10.0 mi South 12.7 mph - N/A   Clear
2:53 PM 32.0 °F 21.6 °F 12.0 °F 44% 30.24 in 10.0 mi South 15.0 mph - N/A   Clear
3:53 PM 33.1 °F 24.4 °F 12.9 °F 43% 30.22 in 10.0 mi South 11.5 mph - N/A   Mostly Cloudy
4:53 PM 33.1 °F 24.9 °F 14.0 °F 46% 30.20 in 10.0 mi SSE 10.4 mph - N/A   Overcast
5:53 PM 32.0 °F 24.2 °F 14.0 °F 48% 30.18 in 10.0 mi South 9.2 mph - N/A   Scattered Clouds
6:53 PM 32.0 °F 23.6 °F 15.1 °F 50% 30.19 in 10.0 mi South 10.4 mph - N/A   Mostly Cloudy
7:53 PM 32.0 °F 23.0 °F 12.9 °F 45% 30.18 in 10.0 mi South 11.5 mph - N/A   Overcast
8:53 PM 30.0 °F 21.7 °F 12.9 °F 49% 30.17 in 10.0 mi South 9.2 mph - N/A   Partly Cloudy
9:53 PM 30.9 °F 25.2 °F 14.0 °F 50% 30.16 in 10.0 mi SSE 5.8 mph - N/A   Overcast
10:53 PM 30.9 °F 25.2 °F 16.0 °F 54% 30.13 in 10.0 mi South 5.8 mph - N/A   Overcast
11:53 PM 30.9 °F 25.2 °F 16.0 °F 54% 30.10 in 10.0 mi SSE 5.8 mph - N/A   Overcast